Volver al catálogo

BREEZE-M DEB

ActivoHEO
NORAD 32033·DEBRIS·🇷🇺 Russia

Lanzado Feb 28, 2006 desde Baikonur Cosmodrome

Loading…

Próximos Pases (próximas 24 horas)

TLE

ActualizadoSource: Space-Track

Época: Sep 13, 2026, 17:39 UTC

1 32033U 06006L   26256.73603962  .00001006  00000-0  12745-2 0  9998
2 32033  51.6490  81.7859 5070842  87.0802 327.4376  5.30569431374223

Sigue BREEZE-M DEB en tiempo real con AllMySat

Download on the App Store